User: anonymous   Login
Location: The D'Auria's Ocala Star Observatory
(29.0276°N, 82.1742°W)
Time: 02:55:40
(UTC-04:00)
Language:

Okean 3 Rocket - Orbit

View from above orbital plane
View from above orbital plane
View from above satellite
View from above satellite

Ground track
Ground track

The orbit data is extracted from the following two-line orbital elements,

1 21398U 91039B   17174.71195646 +.00000109 +00000-0 +11305-4 0  9998
2 21398 082.5224 220.1130 0022049 157.5272 342.1571 14.79666419383834
Epoch (UTC): 23 June 2017 17:05:13
Eccentricity: 0.0022049
inclination: 82.5224°
perigee height: 615 km
apogee height: 646 km
right ascension of ascending node: 220.1130°
argument of perigee: 157.5272°
revolutions per day: 14.79666419
mean anomaly at epoch: 342.1571°
orbit number at epoch: 38383

The dashed part of the orbit path shows where the satellite is in the earth's shadow,  

DLR